,,,PA_Meas_PMT16A,,PR_Meas_QMR101_102,,RH_Meas_QMH101,,SR_Meas_QMS101,,TA_Meas_QMH101,,GenWind,,GenWind,
date,time,status,PA,status,PR,status,RH,status,SR,status,TA,status,DirAvg,status,SpdAvg,
2011-04-02, 00:00:04,VALID,999.376,VALID,0,VALID,85.7112,VALID,0,VALID,25.573,VALID,330,VALID,0.0570313,
2011-04-02, 00:01:04,VALID,999.35,VALID,0,VALID,85.612,VALID,0,VALID,25.5926,VALID,330,VALID,0,
2011-04-02, 00:02:04,VALID,999.329,VALID,0,VALID,85.5357,VALID,0,VALID,25.5926,VALID,330,VALID,0,
2011-04-02, 00:03:04,VALID,999.31,VALID,0,VALID,85.4365,VALID,0,VALID,25.6316,VALID,330,VALID,0,
2011-04-02, 00:04:04,VALID,999.283,VALID,0,VALID,85.5204,VALID,0,VALID,25.6316,VALID,330,VALID,0,
2011-04-02, 00:05:04,VALID,999.324,VALID,0,VALID,85.612,VALID,0,VALID,25.6316,VALID,330,VALID,0,
2011-04-02, 00:06:04,VALID,999.339,VALID,0,VALID,85.5662,VALID,0,VALID,25.6511,VALID,330,VALID,0,
2011-04-02, 00:07:04,VALID,999.339,VALID,0,VALID,85.5738,VALID,0,VALID,25.6902,VALID,330,VALID,0,
2011-04-02, 00:08:04,VALID,999.324,VALID,0,VALID,85.7035,VALID,0,VALID,25.7097,VALID,330,VALID,0,
2011-04-02, 00:09:04,VALID,999.315,VALID,0,VALID,85.5738,VALID,0,VALID,25.7292,VALID,325,VALID,0.362891,
2011-04-02, 00:10:04,VALID,999.3,VALID,0,VALID,85.406,VALID,0.112286,VALID,25.7683,VALID,3,VALID,0.771094,
2011-04-02, 00:11:04,VALID,999.293,VALID,0,VALID,85.2381,VALID,0.112286,VALID,25.7878,VALID,3,VALID,0.4,
2011-04-02, 00:12:04,VALID,999.265,VALID,0,VALID,85.2381,VALID,0,VALID,25.8268,VALID,2,VALID,0.427344,
2011-04-02, 00:13:04,VALID,999.306,VALID,0,VALID,85.1542,VALID,0.112286,VALID,25.8464,VALID,2,VALID,0.306641,
2011-04-02, 00:14:04,VALID,999.249,VALID,0,VALID,85.2686,VALID,0,VALID,25.8659,VALID,2,VALID,0.0265625,
2011-04-02, 00:15:04,VALID,999.194,VALID,0,VALID,85.2992,VALID,0,VALID,25.8659,VALID,2,VALID,0,
2011-04-02, 00:16:04,VALID,999.13,VALID,0,VALID,85.1923,VALID,0,VALID,25.8464,VALID,2,VALID,0,
2011-04-02, 00:17:04,VALID,999.121,VALID,0,VALID,85.1313,VALID,0,VALID,25.8659,VALID,2,VALID,0,
2011-04-02, 00:18:04,VALID,999.14,VALID,0,VALID,85.2,VALID,0,VALID,25.8854,VALID,2,VALID,0,
2011-04-02, 00:19:04,VALID,999.091,VALID,0,VALID,85.0397,VALID,0,VALID,25.8854,VALID,2,VALID,0,
2011-04-02, 00:20:04,VALID,999.131,VALID,0,VALID,84.8948,VALID,0,VALID,25.8854,VALID,2,VALID,0,
2011-04-02, 00:21:04,VALID,999.068,VALID,0,VALID,84.91,VALID,0,VALID,25.9245,VALID,2,VALID,0,
2011-04-02, 00:22:04,VALID,999.054,VALID,0,VALID,84.8032,VALID,0,VALID,25.9245,VALID,2,VALID,0,
2011-04-02, 00:23:04,VALID,999.018,VALID,0,VALID,84.8948,VALID,0,VALID,25.944,VALID,2,VALID,0.519922,
2011-04-02, 00:24:04,VALID,999,VALID,0,VALID,84.6735,VALID,0,VALID,25.9635,VALID,2,VALID,0.0414063,
2011-04-02, 00:25:04,VALID,998.966,VALID,0,VALID,84.9253,VALID,0,VALID,26.0045,VALID,2,VALID,0,
2011-04-02, 00:26:04,VALID,998.946,VALID,0,VALID,85.2457,VALID,0,VALID,26.0026,VALID,2,VALID,0,
2011-04-02, 00:27:04,VALID,998.948,VALID,0,VALID,85.4136,VALID,0,VALID,26.0026,VALID,2,VALID,0,
2011-04-02, 00:28:04,VALID,998.959,VALID,0,VALID,85.3449,VALID,0,VALID,25.9635,VALID,2,VALID,0,
2011-04-02, 00:29:04,VALID,998.936,VALID,0,VALID,85.1542,VALID,0,VALID,25.944,VALID,2,VALID,0,
2011-04-02, 00:30:04,VALID,998.934,VALID,0,VALID,85.1771,VALID,0,VALID,25.9615,VALID,3,VALID,0.721094,
2011-04-02, 00:31:04,VALID,998.932,VALID,0,VALID,85.0626,VALID,0,VALID,25.983,VALID,3,VALID,0.536328,
2011-04-02, 00:32:04,VALID,998.926,VALID,0,VALID,85.322,VALID,0,VALID,26.0221,VALID,3,VALID,0.14375,
2011-04-02, 00:33:04,VALID,998.905,VALID,0,VALID,85.3755,VALID,0,VALID,26.0221,VALID,350,VALID,0.349609,
2011-04-02, 00:34:04,VALID,998.871,VALID,0,VALID,84.8032,VALID,0,VALID,26.0221,VALID,347,VALID,0.878516,
2011-04-02, 00:35:04,VALID,998.89,VALID,0,VALID,85.0779,VALID,0,VALID,26.0807,VALID,320,VALID,0.1,
2011-04-02, 00:36:04,VALID,998.874,VALID,0,VALID,84.9024,VALID,0,VALID,26.0807,VALID,341,VALID,0.990234,
2011-04-02, 00:37:04,VALID,998.865,VALID,0,VALID,84.8872,VALID,0,VALID,26.0807,VALID,1,VALID,1.32031,
2011-04-02, 00:38:04,VALID,998.83,VALID,0,VALID,85.1923,VALID,0,VALID,26.0807,VALID,351,VALID,0.896484,
2011-04-02, 00:39:04,VALID,998.849,VALID,0,VALID,84.6659,VALID,0,VALID,26.0611,VALID,351,VALID,0.96875,
2011-04-02, 00:40:04,VALID,998.806,VALID,0,VALID,84.7193,VALID,0,VALID,26.0807,VALID,344,VALID,0.98125,
2011-04-02, 00:41:04,VALID,998.747,VALID,0,VALID,84.5438,VALID,0,VALID,26.1002,VALID,339,VALID,1.20469,
2011-04-02, 00:42:04,VALID,998.724,VALID,0,VALID,84.5133,VALID,0,VALID,26.1002,VALID,356,VALID,0.957812,
2011-04-02, 00:43:04,VALID,998.704,VALID,0,VALID,84.5133,VALID,0,VALID,26.1197,VALID,347,VALID,0.652734,
2011-04-02, 00:44:04,VALID,998.665,VALID,0,VALID,84.2692,VALID,0,VALID,26.1002,VALID,342,VALID,0.56875,
2011-04-02, 00:45:04,VALID,998.682,VALID,0,VALID,84.6354,VALID,0.112286,VALID,26.1197,VALID,334,VALID,0.239844,
2011-04-02, 00:46:04,VALID,998.65,VALID,0,VALID,84.3378,VALID,0,VALID,26.1197,VALID,334,VALID,0.209766,
2011-04-02, 00:47:04,VALID,998.604,VALID,0,VALID,84.1852,VALID,0,VALID,26.1197,VALID,332,VALID,0.366016,
2011-04-02, 00:48:04,VALID,998.61,VALID,0,VALID,83.9334,VALID,0,VALID,26.1197,VALID,330,VALID,0.426953,
2011-04-02, 00:49:04,VALID,998.562,VALID,0,VALID,83.7809,VALID,0,VALID,26.1588,VALID,356,VALID,1.00898,
2011-04-02, 00:50:04,VALID,998.602,VALID,0,VALID,83.964,VALID,0,VALID,26.1783,VALID,333,VALID,1.1168,
2011-04-02, 00:51:04,VALID,998.579,VALID,0,VALID,84.3836,VALID,0,VALID,26.1783,VALID,335,VALID,0.622656,
2011-04-02, 00:52:04,VALID,998.563,VALID,0,VALID,84.3226,VALID,0,VALID,26.1588,VALID,353,VALID,1.01055,
2011-04-02, 00:53:04,VALID,998.549,VALID,0,VALID,84.2005,VALID,0,VALID,26.1392,VALID,14,VALID,1.19844,
2011-04-02, 00:54:04,VALID,998.522,VALID,0,VALID,83.8495,VALID,0,VALID,26.1392,VALID,345,VALID,1.27305,
2011-04-02, 00:55:04,VALID,998.512,VALID,0,VALID,83.613,VALID,0,VALID,26.1588,VALID,3,VALID,1.14766,
2011-04-02, 00:56:04,VALID,998.489,VALID,0,VALID,83.5749,VALID,0,VALID,26.1783,VALID,1,VALID,0.809375,
2011-04-02, 00:57:04,VALID,998.428,VALID,0,VALID,83.3917,VALID,0,VALID,26.2173,VALID,2,VALID,0.691406,
2011-04-02, 00:58:04,VALID,998.451,VALID,0,VALID,83.4986,VALID,0,VALID,26.2173,VALID,2,VALID,0.517578,
2011-04-02, 00:59:04,VALID,998.467,VALID,0,VALID,83.5825,VALID,0,VALID,26.2173,VALID,339,VALID,0.444141,
2011-04-02, 01:00:04,VALID,998.432,VALID,0,VALID,83.9106,VALID,0,VALID,26.2173,VALID,339,VALID,0.0464844,
2011-04-02, 01:01:04,VALID,998.407,VALID,0,VALID,83.6969,VALID,0,VALID,26.1783,VALID,345,VALID,0.968359,
2011-04-02, 01:02:04,VALID,998.4,VALID,0,VALID,83.8953,VALID,0,VALID,26.1978,VALID,2,VALID,0.693359,
2011-04-02, 01:03:04,VALID,998.366,VALID,0,VALID,83.8648,VALID,0,VALID,26.1783,VALID,2,VALID,0.589844,
2011-04-02, 01:04:04,VALID,998.369,VALID,0,VALID,83.9258,VALID,0,VALID,26.1978,VALID,2,VALID,0.528125,
2011-04-02, 01:05:04,VALID,998.323,VALID,0,VALID,83.6664,VALID,0,VALID,26.2193,VALID,355,VALID,0.875391,
2011-04-02, 01:06:04,VALID,998.318,VALID,0,VALID,83.8037,VALID,0,VALID,26.2369,VALID,347,VALID,0.716016,
2011-04-02, 01:07:04,VALID,998.279,VALID,0,VALID,83.9106,VALID,0,VALID,26.2584,VALID,339,VALID,0.650391,
2011-04-02, 01:08:04,VALID,998.26,VALID,0,VALID,83.7351,VALID,0,VALID,26.2564,VALID,323,VALID,0.623828,
2011-04-02, 01:09:04,VALID,998.213,VALID,0,VALID,83.7656,VALID,0,VALID,26.2759,VALID,353,VALID,0.808594,
2011-04-02, 01:10:04,VALID,998.207,VALID,0,VALID,84.1242,VALID,0,VALID,26.2759,VALID,344,VALID,0.533984,
2011-04-02, 01:11:04,VALID,998.17,VALID,0,VALID,84.4523,VALID,0,VALID,26.2369,VALID,343,VALID,0.776563,
2011-04-02, 01:12:04,VALID,998.193,VALID,0,VALID,84.5209,VALID,0,VALID,26.1958,VALID,346,VALID,1.08906,
2011-04-02, 01:13:04,VALID,998.174,VALID,0,VALID,84.498,VALID,0,VALID,26.1978,VALID,349,VALID,0.743359,
2011-04-02, 01:14:04,VALID,998.196,VALID,0,VALID,84.5591,VALID,0,VALID,26.1978,VALID,353,VALID,0.720703,
2011-04-02, 01:15:04,VALID,998.191,VALID,0,VALID,84.6354,VALID,0,VALID,26.1978,VALID,338,VALID,0.707031,
2011-04-02, 01:16:04,VALID,998.179,VALID,0,VALID,84.788,VALID,0,VALID,26.1783,VALID,324,VALID,0.865625,
2011-04-02, 01:17:04,VALID,998.109,VALID,0,VALID,84.9482,VALID,0,VALID,26.1783,VALID,341,VALID,0.66875,
2011-04-02, 01:18:04,VALID,998.077,VALID,0,VALID,84.91,VALID,0,VALID,26.1588,VALID,341,VALID,0.591016,
2011-04-02, 01:19:04,VALID,998.081,VALID,0,VALID,85.0169,VALID,0,VALID,26.1588,VALID,339,VALID,0.751953,
2011-04-02, 01:20:04,VALID,998.074,VALID,0,VALID,85.0932,VALID,0,VALID,26.1588,VALID,329,VALID,0.896094,
2011-04-02, 01:21:04,VALID,998.065,VALID,0,VALID,84.7574,VALID,0,VALID,26.1783,VALID,314,VALID,1.11992,
2011-04-02, 01:22:04,VALID,998.03,VALID,0,VALID,84.5896,VALID,0,VALID,26.2173,VALID,285,VALID,0.699219,
2011-04-02, 01:23:04,VALID,998.053,VALID,0,VALID,84.5972,VALID,0,VALID,26.2369,VALID,324,VALID,0.535937,
2011-04-02, 01:24:04,VALID,998.034,VALID,0,VALID,84.5667,VALID,0,VALID,26.2369,VALID,323,VALID,0.444922,
2011-04-02, 01:25:04,VALID,998.002,VALID,0,VALID,84.3607,VALID,0,VALID,26.2349,VALID,311,VALID,0.417188,
2011-04-02, 01:26:04,VALID,997.97,VALID,0,VALID,84.1547,VALID,0,VALID,26.2564,VALID,299,VALID,0.924219,
2011-04-02, 01:27:04,VALID,997.975,VALID,0,VALID,84.0555,VALID,0,VALID,26.2954,VALID,308,VALID,0.925391,
2011-04-02, 01:28:04,VALID,997.987,VALID,0,VALID,84.3607,VALID,0,VALID,26.315,VALID,334,VALID,0.551172,
2011-04-02, 01:29:04,VALID,997.973,VALID,0,VALID,84.0784,VALID,0,VALID,26.2954,VALID,335,VALID,0.798437,
2011-04-02, 01:30:04,VALID,997.948,VALID,0,VALID,83.964,VALID,0,VALID,26.2954,VALID,323,VALID,1.23906,
2011-04-02, 01:31:04,VALID,997.941,VALID,0,VALID,84.2234,VALID,0,VALID,26.3345,VALID,330,VALID,0.841406,
2011-04-02, 01:32:04,VALID,997.948,VALID,0,VALID,83.9411,VALID,0,VALID,26.3345,VALID,323,VALID,0.853125,
2011-04-02, 01:33:04,VALID,997.92,VALID,0,VALID,83.7885,VALID,0,VALID,26.354,VALID,313,VALID,0.800781,
2011-04-02, 01:34:04,VALID,997.894,VALID,0,VALID,83.8877,VALID,0,VALID,26.3756,VALID,318,VALID,0.786328,
2011-04-02, 01:35:04,VALID,997.871,VALID,0,VALID,83.7809,VALID,0,VALID,26.354,VALID,335,VALID,0.720312,
2011-04-02, 01:36:04,VALID,997.87,VALID,0,VALID,84.1242,VALID,0,VALID,26.354,VALID,335,VALID,0.591016,
2011-04-02, 01:37:04,VALID,997.872,VALID,0,VALID,84.1471,VALID,0,VALID,26.315,VALID,324,VALID,0.478516,
2011-04-02, 01:38:04,VALID,997.876,VALID,0,VALID,84.2692,VALID,0,VALID,26.2954,VALID,308,VALID,0.673047,
2011-04-02, 01:39:04,VALID,997.858,VALID,0,VALID,84.3302,VALID,0,VALID,26.2584,VALID,333,VALID,0.546094,
2011-04-02, 01:40:04,VALID,997.849,VALID,0,VALID,84.5362,VALID,0,VALID,26.2584,VALID,332,VALID,0.705469,
2011-04-02, 01:41:04,VALID,997.842,VALID,0,VALID,84.849,VALID,0,VALID,26.1978,VALID,332,VALID,0.266016,
2011-04-02, 01:42:04,VALID,997.801,VALID,0,VALID,84.9253,VALID,0,VALID,26.1588,VALID,332,VALID,0.177344,
2011-04-02, 01:43:04,VALID,997.815,VALID,0,VALID,84.9863,VALID,0,VALID,26.1588,VALID,332,VALID,0.175391,
2011-04-02, 01:44:04,VALID,997.784,VALID,0,VALID,85.0703,VALID,0,VALID,26.1392,VALID,299,VALID,0.766016,
2011-04-02, 01:45:04,VALID,997.79,VALID,0,VALID,84.9024,VALID,0,VALID,26.1607,VALID,303,VALID,0.726563,
2011-04-02, 01:46:04,VALID,997.79,VALID,0,VALID,85.0474,VALID,0,VALID,26.1607,VALID,304,VALID,0.471875,
2011-04-02, 01:47:04,VALID,997.796,VALID,0,VALID,84.7269,VALID,0,VALID,26.1607,VALID,284,VALID,0.858203,
2011-04-02, 01:48:04,VALID,997.819,VALID,0,VALID,84.3455,VALID,0,VALID,26.2193,VALID,329,VALID,1.30352,
2011-04-02, 01:49:04,VALID,997.832,VALID,0,VALID,84.437,VALID,0,VALID,26.2369,VALID,323,VALID,0.33125,
2011-04-02, 01:50:04,VALID,997.81,VALID,0,VALID,84.4599,VALID,0,VALID,26.2173,VALID,284,VALID,0.449219,
2011-04-02, 01:51:04,VALID,997.804,VALID,0,VALID,84.3226,VALID,0,VALID,26.2389,VALID,284,VALID,0.0398437,
2011-04-02, 01:52:04,VALID,997.793,VALID,0,VALID,84.1395,VALID,0,VALID,26.2173,VALID,299,VALID,0.760547,
2011-04-02, 01:53:04,VALID,997.766,VALID,0,VALID,84.025,VALID,0,VALID,26.2369,VALID,288,VALID,0.498828,
2011-04-02, 01:54:04,VALID,997.796,VALID,0,VALID,83.9563,VALID,0,VALID,26.2564,VALID,312,VALID,0.603906,
2011-04-02, 01:55:04,VALID,997.756,VALID,0,VALID,83.9945,VALID,0,VALID,26.2564,VALID,317,VALID,0.576172,
2011-04-02, 01:56:04,VALID,997.766,VALID,0,VALID,83.9258,VALID,0,VALID,26.2564,VALID,320,VALID,0.676172,
2011-04-02, 01:57:04,VALID,997.73,VALID,0,VALID,83.9106,VALID,0,VALID,26.2564,VALID,345,VALID,0.578125,
2011-04-02, 01:58:04,VALID,997.75,VALID,0,VALID,83.7274,VALID,0,VALID,26.2564,VALID,337,VALID,0.480859,
2011-04-02, 01:59:04,VALID,997.708,VALID,0,VALID,83.674,VALID,0,VALID,26.2564,VALID,336,VALID,0.629687,
2011-04-02, 02:00:04,VALID,997.697,VALID,0,VALID,83.9716,VALID,0,VALID,26.2564,VALID,332,VALID,0.569922,
2011-04-02, 02:01:04,VALID,997.66,VALID,0,VALID,83.8877,VALID,0,VALID,26.2369,VALID,334,VALID,0.580469,
2011-04-02, 02:02:04,VALID,997.672,VALID,0,VALID,83.8114,VALID,0,VALID,26.2369,VALID,336,VALID,0.904297,
2011-04-02, 02:03:04,VALID,997.593,VALID,0,VALID,83.7274,VALID,0,VALID,26.2564,VALID,326,VALID,0.732422,
2011-04-02, 02:04:04,VALID,997.615,VALID,0,VALID,83.9563,VALID,0,VALID,26.2369,VALID,326,VALID,0.585938,
2011-04-02, 02:05:04,VALID,997.615,VALID,0,VALID,84.086,VALID,0.112286,VALID,26.2369,VALID,326,VALID,0.409375,
2011-04-02, 02:06:04,VALID,997.605,VALID,0,VALID,84.2005,VALID,0,VALID,26.1783,VALID,326,VALID,0.23125,
2011-04-02, 02:07:04,VALID,997.606,VALID,0,VALID,84.2997,VALID,0.112286,VALID,26.1588,VALID,326,VALID,0,
2011-04-02, 02:08:04,VALID,997.599,VALID,0,VALID,84.5209,VALID,0,VALID,26.1607,VALID,326,VALID,0,
2011-04-02, 02:09:04,VALID,997.584,VALID,0,VALID,84.6125,VALID,0,VALID,26.1197,VALID,326,VALID,0.00078125,
2011-04-02, 02:10:04,VALID,997.603,VALID,0,VALID,84.3683,VALID,0,VALID,26.1197,VALID,326,VALID,0.253906,
2011-04-02, 02:11:04,VALID,997.597,VALID,0,VALID,84.3607,VALID,0,VALID,26.1588,VALID,326,VALID,0.186719,
2011-04-02, 02:12:04,VALID,997.628,VALID,0,VALID,84.5515,VALID,0,VALID,26.1588,VALID,326,VALID,0,
2011-04-02, 02:13:04,VALID,997.634,VALID,0,VALID,84.5515,VALID,0,VALID,26.1588,VALID,326,VALID,0,
2011-04-02, 02:14:04,VALID,997.646,VALID,0,VALID,84.5438,VALID,0,VALID,26.1607,VALID,326,VALID,0,
2011-04-02, 02:15:04,VALID,997.645,VALID,0,VALID,84.3226,VALID,0,VALID,26.1803,VALID,326,VALID,0,
2011-04-02, 02:16:04,VALID,997.608,VALID,0,VALID,84.5591,VALID,0,VALID,26.1803,VALID,326,VALID,0,
2011-04-02, 02:17:04,VALID,997.662,VALID,0,VALID,84.5209,VALID,0,VALID,26.1588,VALID,350,VALID,0.410156,
2011-04-02, 02:18:04,VALID,997.68,VALID,0,VALID,84.5057,VALID,0,VALID,26.1588,VALID,331,VALID,0.444141,
2011-04-02, 02:19:04,VALID,997.702,VALID,0,VALID,84.3531,VALID,0,VALID,26.1783,VALID,296,VALID,0.535937,
2011-04-02, 02:20:04,VALID,997.708,VALID,0,VALID,84.4752,VALID,0,VALID,26.1978,VALID,296,VALID,0,
2011-04-02, 02:21:04,VALID,997.672,VALID,0,VALID,84.3607,VALID,0,VALID,26.1978,VALID,296,VALID,0,
2011-04-02, 02:22:04,VALID,997.743,VALID,0,VALID,84.4217,VALID,0,VALID,26.2193,VALID,296,VALID,0,
2011-04-02, 02:23:04,VALID,997.714,VALID,0,VALID,84.376,VALID,0,VALID,26.1998,VALID,296,VALID,0,
2011-04-02, 02:24:04,VALID,997.695,VALID,0,VALID,84.376,VALID,0,VALID,26.1803,VALID,296,VALID,0,
2011-04-02, 02:25:04,VALID,997.701,VALID,0,VALID,84.498,VALID,0,VALID,26.1783,VALID,296,VALID,0,
2011-04-02, 02:26:04,VALID,997.656,VALID,0,VALID,84.4446,VALID,0,VALID,26.1998,VALID,296,VALID,0,
2011-04-02, 02:27:04,VALID,997.653,VALID,0,VALID,84.643,VALID,0,VALID,26.1998,VALID,296,VALID,0,
2011-04-02, 02:28:04,VALID,997.637,VALID,0,VALID,84.7193,VALID,0,VALID,26.1607,VALID,296,VALID,0,
2011-04-02, 02:29:04,VALID,997.6,VALID,0,VALID,84.9177,VALID,0,VALID,26.1588,VALID,2,VALID,0.996875,
2011-04-02, 02:30:04,VALID,997.619,VALID,0,VALID,85.1313,VALID,0,VALID,26.1412,VALID,2,VALID,0.930469,
2011-04-02, 02:31:04,VALID,997.589,VALID,0,VALID,85.1694,VALID,0,VALID,26.1197,VALID,350,VALID,0.788672,
2011-04-02, 02:32:04,VALID,997.61,VALID,0,VALID,85.1771,VALID,0,VALID,26.1217,VALID,350,VALID,0.746484,
2011-04-02, 02:33:04,VALID,997.568,VALID,0,VALID,85.0855,VALID,0,VALID,26.1002,VALID,350,VALID,0.871875,
2011-04-02, 02:34:04,VALID,997.554,VALID,0,VALID,85.2992,VALID,0,VALID,26.1412,VALID,348,VALID,0.577344,
2011-04-02, 02:35:04,VALID,997.534,VALID,0,VALID,85.2229,VALID,0,VALID,26.1022,VALID,348,VALID,0.413672,
2011-04-02, 02:36:04,VALID,997.522,VALID,0,VALID,85.055,VALID,0,VALID,26.1022,VALID,345,VALID,0.735156,
2011-04-02, 02:37:04,VALID,997.528,VALID,0,VALID,85.0626,VALID,0,VALID,26.1002,VALID,335,VALID,0.8,
2011-04-02, 02:38:04,VALID,997.49,VALID,0,VALID,84.6735,VALID,0,VALID,26.1412,VALID,1,VALID,0.860547,
2011-04-02, 02:39:04,VALID,997.531,VALID,0,VALID,84.5667,VALID,0,VALID,26.1803,VALID,341,VALID,0.751172,
2011-04-02, 02:40:04,VALID,997.533,VALID,0,VALID,84.5515,VALID,0,VALID,26.1978,VALID,311,VALID,0.632813,
2011-04-02, 02:41:04,VALID,997.501,VALID,0,VALID,84.5591,VALID,0,VALID,26.2173,VALID,304,VALID,0.410547,
2011-04-02, 02:42:04,VALID,997.544,VALID,0,VALID,84.2005,VALID,0,VALID,26.2389,VALID,343,VALID,1.04492,
2011-04-02, 02:43:04,VALID,997.527,VALID,0,VALID,84.1852,VALID,0,VALID,26.2779,VALID,302,VALID,0.617188,
2011-04-02, 02:44:04,VALID,997.564,VALID,0,VALID,84.2386,VALID,0,VALID,26.2564,VALID,313,VALID,0.654297,
2011-04-02, 02:45:04,VALID,997.564,VALID,0,VALID,84.0174,VALID,0,VALID,26.2974,VALID,336,VALID,0.558984,
2011-04-02, 02:46:04,VALID,997.502,VALID,0,VALID,84.1776,VALID,0,VALID,26.317,VALID,336,VALID,0.517969,
2011-04-02, 02:47:04,VALID,997.506,VALID,0,VALID,84.1852,VALID,0,VALID,26.2759,VALID,336,VALID,0,
2011-04-02, 02:48:04,VALID,997.514,VALID,0,VALID,84.2157,VALID,0,VALID,26.2759,VALID,336,VALID,0,
2011-04-02, 02:49:04,VALID,997.529,VALID,0,VALID,84.2234,VALID,0,VALID,26.2759,VALID,327,VALID,0.223047,
2011-04-02, 02:50:04,VALID,997.524,VALID,0,VALID,84.2463,VALID,0,VALID,26.2974,VALID,295,VALID,0.539844,
2011-04-02, 02:51:04,VALID,997.512,VALID,0,VALID,84.0784,VALID,0,VALID,26.2974,VALID,290,VALID,1.26563,
2011-04-02, 02:52:04,VALID,997.525,VALID,0,VALID,83.8495,VALID,0,VALID,26.315,VALID,306,VALID,0.747266,
2011-04-02, 02:53:04,VALID,997.501,VALID,0,VALID,83.7274,VALID,0,VALID,26.354,VALID,305,VALID,0.341797,
2011-04-02, 02:54:04,VALID,997.449,VALID,0,VALID,83.613,VALID,0,VALID,26.3756,VALID,305,VALID,0,
2011-04-02, 02:55:04,VALID,997.422,VALID,0,VALID,83.6435,VALID,0,VALID,26.354,VALID,321,VALID,0.903516,
2011-04-02, 02:56:04,VALID,997.447,VALID,0,VALID,83.7046,VALID,0,VALID,26.3756,VALID,309,VALID,0.660937,
2011-04-02, 02:57:04,VALID,997.449,VALID,0,VALID,83.9182,VALID,0,VALID,26.356,VALID,317,VALID,0.876562,
2011-04-02, 02:58:04,VALID,997.469,VALID,0,VALID,83.9258,VALID,0,VALID,26.356,VALID,330,VALID,0.991797,
2011-04-02, 02:59:04,VALID,997.456,VALID,0,VALID,84.0098,VALID,0,VALID,26.356,VALID,316,VALID,0.728516,
2011-04-02, 03:00:04,VALID,997.469,VALID,0,VALID,84.1013,VALID,0,VALID,26.315,VALID,334,VALID,0.337891,
2011-04-02, 03:01:04,VALID,997.464,VALID,0,VALID,84.2081,VALID,0,VALID,26.317,VALID,333,VALID,0.680469,
2011-04-02, 03:02:04,VALID,997.49,VALID,0,VALID,84.2844,VALID,0,VALID,26.2954,VALID,324,VALID,0.508203,
2011-04-02, 03:03:04,VALID,997.499,VALID,0,VALID,84.2081,VALID,0,VALID,26.2954,VALID,328,VALID,0.727734,
2011-04-02, 03:04:04,VALID,997.519,VALID,0,VALID,84.2692,VALID,0,VALID,26.315,VALID,328,VALID,0.377734,
2011-04-02, 03:05:04,VALID,997.518,VALID,0,VALID,84.2081,VALID,0,VALID,26.3365,VALID,326,VALID,0.630859,
2011-04-02, 03:06:04,VALID,997.531,VALID,0,VALID,84.2768,VALID,0,VALID,26.315,VALID,296,VALID,0.507813,
2011-04-02, 03:07:04,VALID,997.543,VALID,0,VALID,84.231,VALID,0,VALID,26.315,VALID,295,VALID,0.357031,
2011-04-02, 03:08:04,VALID,997.526,VALID,0,VALID,84.0632,VALID,0,VALID,26.315,VALID,294,VALID,0.03125,
2011-04-02, 03:09:04,VALID,997.53,VALID,0,VALID,84.1013,VALID,0,VALID,26.354,VALID,265,VALID,0.403125,
2011-04-02, 03:10:04,VALID,997.531,VALID,0,VALID,84.1623,VALID,0,VALID,26.354,VALID,265,VALID,0.273828,
2011-04-02, 03:11:04,VALID,997.522,VALID,0,VALID,83.5749,VALID,0,VALID,26.354,VALID,294,VALID,1.00508,
2011-04-02, 03:12:04,VALID,997.542,VALID,0,VALID,83.3765,VALID,0,VALID,26.4537,VALID,313,VALID,0.616016,
2011-04-02, 03:13:04,VALID,997.522,VALID,0,VALID,83.4375,VALID,0,VALID,26.4126,VALID,318,VALID,0.265625,
2011-04-02, 03:14:04,VALID,997.53,VALID,0,VALID,83.4604,VALID,0,VALID,26.4341,VALID,318,VALID,0,
2011-04-02, 03:15:04,VALID,997.529,VALID,0,VALID,83.4604,VALID,0,VALID,26.3931,VALID,318,VALID,0,
2011-04-02, 03:16:04,VALID,997.515,VALID,0,VALID,83.346,VALID,0,VALID,26.4341,VALID,301,VALID,0.845703,
2011-04-02, 03:17:04,VALID,997.484,VALID,0,VALID,83.4299,VALID,0,VALID,26.4126,VALID,301,VALID,0.260547,
2011-04-02, 03:18:04,VALID,997.496,VALID,0,VALID,83.3765,VALID,0,VALID,26.3931,VALID,287,VALID,0.598828,
2011-04-02, 03:19:04,VALID,997.499,VALID,0,VALID,83.2773,VALID,0,VALID,26.4537,VALID,269,VALID,0.448047,
2011-04-02, 03:20:04,VALID,997.501,VALID,0,VALID,83.346,VALID,0,VALID,26.4537,VALID,269,VALID,0.439063,
2011-04-02, 03:21:04,VALID,997.455,VALID,0,VALID,83.407,VALID,0,VALID,26.4126,VALID,269,VALID,0.0078125,
2011-04-02, 03:22:04,VALID,997.465,VALID,0,VALID,83.4299,VALID,0,VALID,26.4146,VALID,269,VALID,0.220703,
2011-04-02, 03:23:04,VALID,997.446,VALID,0,VALID,83.4757,VALID,0,VALID,26.3951,VALID,269,VALID,0.203516,
2011-04-02, 03:24:04,VALID,997.391,VALID,0,VALID,83.3994,VALID,0,VALID,26.4146,VALID,269,VALID,0.0949219,
2011-04-02, 03:25:04,VALID,997.399,VALID,0,VALID,83.3917,VALID,0,VALID,26.3931,VALID,269,VALID,0,
2011-04-02, 03:26:04,VALID,997.382,VALID,0,VALID,83.4223,VALID,0,VALID,26.3931,VALID,269,VALID,0,
2011-04-02, 03:27:04,VALID,997.392,VALID,0,VALID,83.4223,VALID,0,VALID,26.3931,VALID,269,VALID,0,
2011-04-02, 03:28:04,VALID,997.367,VALID,0,VALID,83.5672,VALID,0,VALID,26.3951,VALID,269,VALID,0,
2011-04-02, 03:29:04,VALID,997.358,VALID,0,VALID,83.6893,VALID,0,VALID,26.354,VALID,269,VALID,0,
2011-04-02, 03:30:04,VALID,997.342,VALID,0,VALID,84.0784,VALID,0,VALID,26.315,VALID,269,VALID,0,
2011-04-02, 03:31:04,VALID,997.328,VALID,0,VALID,84.2997,VALID,0,VALID,26.2759,VALID,269,VALID,0,
2011-04-02, 03:32:04,VALID,997.325,VALID,0,VALID,84.3455,VALID,0,VALID,26.2369,VALID,269,VALID,0,
2011-04-02, 03:33:04,VALID,997.314,VALID,0,VALID,84.4599,VALID,0,VALID,26.2153,VALID,269,VALID,0,
2011-04-02, 03:34:04,VALID,997.325,VALID,0,VALID,84.7346,VALID,0,VALID,26.2173,VALID,269,VALID,0,
2011-04-02, 03:35:04,VALID,997.349,VALID,0,VALID,84.8414,VALID,0,VALID,26.1978,VALID,269,VALID,0,
2011-04-02, 03:36:04,VALID,997.347,VALID,0,VALID,84.8872,VALID,0,VALID,26.1588,VALID,314,VALID,0.671094,
2011-04-02, 03:37:04,VALID,997.384,VALID,0,VALID,84.9253,VALID,0,VALID,26.1783,VALID,314,VALID,0,
2011-04-02, 03:38:04,VALID,997.395,VALID,0,VALID,84.849,VALID,0,VALID,26.1783,VALID,311,VALID,0,
2011-04-02, 03:39:04,VALID,997.414,VALID,0,VALID,84.8414,VALID,0,VALID,26.1978,VALID,273,VALID,0.025,
2011-04-02, 03:40:04,VALID,997.436,VALID,0,VALID,84.6049,VALID,0,VALID,26.1978,VALID,274,VALID,0.373047,
2011-04-02, 03:41:04,VALID,997.44,VALID,0,VALID,84.6125,VALID,0,VALID,26.2173,VALID,274,VALID,0.0363281,
2011-04-02, 03:42:04,VALID,997.449,VALID,0,VALID,84.6964,VALID,0,VALID,26.2173,VALID,274,VALID,0.296094,
2011-04-02, 03:43:04,VALID,997.47,VALID,0,VALID,84.7269,VALID,0,VALID,26.2389,VALID,273,VALID,0.333594,
2011-04-02, 03:44:04,VALID,997.444,VALID,0,VALID,84.7803,VALID,0,VALID,26.2389,VALID,272,VALID,0,
2011-04-02, 03:45:04,VALID,997.476,VALID,0,VALID,84.5972,VALID,0,VALID,26.2584,VALID,272,VALID,0,
2011-04-02, 03:46:04,VALID,997.473,VALID,0,VALID,84.5438,VALID,0,VALID,26.2369,VALID,272,VALID,0,
2011-04-02, 03:47:04,VALID,997.476,VALID,0,VALID,84.5362,VALID,0,VALID,26.2564,VALID,272,VALID,0,
2011-04-02, 03:48:04,VALID,997.472,VALID,0,VALID,84.3836,VALID,0,VALID,26.2564,VALID,272,VALID,0,
2011-04-02, 03:49:04,VALID,997.504,VALID,0,VALID,84.3378,VALID,0,VALID,26.2759,VALID,272,VALID,0,